Terug naar catalogus

CZ-6A DEB

ActiefSSO
NORAD 54449·DEBRIS·🇨🇳 China

Gelanceerd Nov 11, 2022 vanaf Taiyuan Satellite Launch Center

Loading…

Volgende Passages (komende 24 uur)

TLE

VersSource: Space-Track

Epoch: Sep 14, 2026, 09:30 UTC

1 54449U 22151FZ  26257.39597060  .00000163  00000-0  14671-3 0  9990
2 54449  98.9902 230.3603 0131943 190.7215 169.1127 13.93260253194856

Volg CZ-6A DEB in realtime met AllMySat

Download on the App Store